South Burlington, VT

3:23 AM EDT on July 25, 2016 (GMT -0400)
Burlington International

Weather History for KBTV - March, 2014

Change the Weather History Date:

Thursday, March 13, 2014

  Actual Average Record
Temperature  
Mean Temperature 7 °F 30 °F  
Max Temperature 16 °F 39 °F 67 °F (2012)
Min Temperature -2 °F 21 °F -7 °F (1948)
Degree Days  
Heating Degree Days 58 35  
Month to date heating degree days 608 489  
Since 1 July heating degree days 6073 5899  
Cooling Degree Days 0 0  
Month to date cooling degree days 0 0  
Year to date cooling degree days 0 0  
Moisture  
Dew Point 2 °F    
Average Humidity 61    
Maximum Humidity 80    
Minimum Humidity 42    
Precipitation  
Precipitation 0.04 in 0.07 in 1.10 in (1888)
Month to date precipitation 0.84 0.88  
Year to date precipitation 5.12 4.70  
Snow  
Snow 3.50 in 0.60 in 15.50 in (1993)
Month to date snowfall 22.0 8.0  
Since 1 July snowfall 80.3 68.8  
Snow Depth 17.00 in    
Sea Level Pressure  
Sea Level Pressure 29.62 in    
Wind  
Wind Speed 15 mph (NNW)    
Max Wind Speed 31 mph    
Max Gust Speed 42 mph    
Visibility 3 miles    
Events Fog , Snow    
T = Trace of Precipitation, MM = Missing Value Source: NWS Daily Summary

Daily Weather History Graph

Daily Weather History Graph

Search for Another Location

Airport or City:

Trip Planner

Search our weather history database for the weather conditions in past years. The results will help you decide how hot, cold, wet, or windy it might be!

Date:

Astronomy

Mar. 13, 2014 Rise Set
Actual Time 7:08 AM EDT 6:56 PM EDT
Civil Twilight 6:39 AM EDT 7:25 PM EDT
Nautical Twilight 6:05 AM EDT 7:58 PM EDT
Astronomical Twilight 5:31 AM EDT 8:33 PM EDT
Moon 4:14 PM EDT (3/13) 5:19 AM EDT (3/13)
Length of Visible Light 12h 45m
Length of Day
11h 47m
Waxing Gibbous, 91% of the Moon is Illuminated
Mar 13
Waxing Gibbous
Mar 16
Full
Mar 23
Last Quarter
Mar 30
New
Apr 7
First Quarter

Hourly Weather History & Observations

Time (EDT) Temp. Windchill Dew Point Humidity Pressure Visibility Wind Dir Wind Speed Gust Speed Precip Events Conditions
12:04 AM 12.9 °F -7.3 °F 9.0 °F 84% 29.39 in 0.5 mi NNW 26.5 mph 34.5 mph 0.01 in Fog Light Freezing Fog
12:39 AM 12.9 °F -6.5 °F 8.1 °F 81% 29.41 in 0.5 mi NNW 24.2 mph 38.0 mph 0.02 in   Haze
12:54 AM 12.0 °F -9.2 °F 7.0 °F 80% 29.44 in 0.5 mi North 28.8 mph 41.4 mph 0.03 in   Haze
1:23 AM 10.9 °F -10.3 °F 6.1 °F 81% 29.42 in 0.5 mi North 27.6 mph 40.3 mph N/A   Haze
1:52 AM 10.4 °F -10.3 °F 6.8 °F 85% 29.43 in 0.5 mi NNW 25.3 mph 39.1 mph 0.00 in   Haze
1:54 AM 10.9 °F -10.3 °F 5.0 °F 77% 29.45 in 0.5 mi North 27.6 mph 39.1 mph 0.00 in   Haze
2:08 AM 10.9 °F -8.3 °F 6.1 °F 81% 29.43 in 1.0 mi NNW 21.9 mph 36.8 mph N/A   Haze
2:18 AM 10.9 °F -9.6 °F 5.0 °F 77% 29.44 in 0.8 mi NNW 25.3 mph 39.1 mph N/A   Haze
2:28 AM 10.0 °F -11.5 °F 5.0 °F 80% 29.44 in 1.0 mi NNW 27.6 mph 34.5 mph N/A   Haze
2:54 AM 10.0 °F -8.6 °F 5.0 °F 80% 29.47 in 1.0 mi North 19.6 mph 33.4 mph N/A   Haze
3:07 AM 10.0 °F -10.4 °F 5.0 °F 80% 29.46 in 0.8 mi North 24.2 mph 34.5 mph N/A   Haze
3:15 AM 10.0 °F -9.1 °F 5.0 °F 80% 29.46 in 1.0 mi North 20.7 mph 33.4 mph N/A   Haze
3:37 AM 10.0 °F -9.5 °F 3.9 °F 76% 29.45 in 0.8 mi North 21.9 mph 34.5 mph 0.00 in Snow Light Snow
3:54 AM 10.0 °F -10.4 °F 3.9 °F 76% 29.48 in 0.8 mi North 24.2 mph 39.1 mph 0.00 in   Haze
4:04 AM 10.0 °F -8.1 °F 5.0 °F 80% 29.45 in 0.8 mi North 18.4 mph 32.2 mph 0.00 in Snow Light Snow
4:25 AM 9.0 °F -10.5 °F 5.0 °F 84% 29.46 in 0.5 mi North 20.7 mph 31.1 mph 0.01 in Fog Light Freezing Fog
4:51 AM 8.6 °F -10.5 °F 3.2 °F 79% 29.48 in 0.8 mi NNW 19.6 mph 29.9 mph 0.01 in Snow Light Snow
4:54 AM 9.0 °F -11.0 °F 3.9 °F 80% 29.50 in 0.8 mi North 21.9 mph 29.9 mph 0.01 in Snow Light Snow
5:54 AM 8.1 °F -12.2 °F 3.0 °F 80% 29.52 in 0.8 mi North 21.9 mph 26.5 mph 0.01 in Snow Light Snow
6:31 AM 8.1 °F -9.6 °F 3.0 °F 80% 29.52 in 1.0 mi North 16.1 mph 27.6 mph 0.00 in Snow Light Snow
6:39 AM 8.1 °F -11.2 °F 3.0 °F 80% 29.53 in 0.8 mi North 19.6 mph 27.6 mph 0.00 in Snow Light Snow
6:54 AM 8.1 °F -10.2 °F 3.0 °F 80% 29.56 in 0.8 mi North 17.3 mph 26.5 mph 0.00 in Snow Light Snow
7:02 AM 8.1 °F -11.7 °F 3.0 °F 80% 29.54 in 1.0 mi North 20.7 mph 29.9 mph 0.00 in Snow Light Snow
7:22 AM 8.1 °F -13.4 °F 1.9 °F 76% 29.56 in 0.8 mi North 25.3 mph 33.4 mph 0.00 in Snow Light Snow
7:42 AM 7.0 °F -12.6 °F 1.0 °F 77% 29.57 in 1.0 mi North 19.6 mph 33.4 mph 0.00 in Snow Light Snow
7:54 AM 7.0 °F -13.1 °F 1.0 °F 77% 29.60 in 0.8 mi North 20.7 mph 28.8 mph 0.00 in Snow Light Snow
8:03 AM 7.0 °F -11.0 °F 1.9 °F 80% 29.57 in 0.5 mi NNW 16.1 mph - 0.00 in Snow Snow
8:10 AM 7.0 °F -10.4 °F 3.0 °F 84% 29.58 in 0.2 mi North 15.0 mph - 0.01 in Snow Heavy Snow
8:23 AM 7.0 °F -11.0 °F 1.9 °F 80% 29.58 in 0.2 mi North 16.1 mph 24.2 mph 0.01 in Snow Heavy Snow
8:45 AM 7.0 °F -11.0 °F 1.9 °F 80% 29.59 in 0.5 mi NNW 16.1 mph 23.0 mph 0.01 in Snow Snow
8:54 AM 7.0 °F -13.1 °F 1.9 °F 80% 29.62 in 0.5 mi North 20.7 mph 26.5 mph 0.01 in Snow Snow
9:36 AM 7.0 °F -14.0 °F 1.0 °F 77% 29.61 in 0.5 mi North 23.0 mph 34.5 mph 0.01 in Snow Snow
9:54 AM 8.1 °F -9.6 °F 1.0 °F 73% 29.64 in 0.5 mi North 16.1 mph 26.5 mph 0.01 in Snow Snow
10:12 AM 8.1 °F -11.7 °F 1.9 °F 76% 29.62 in 0.5 mi North 20.7 mph 29.9 mph 0.00 in Snow Snow
10:22 AM 8.1 °F -11.7 °F 1.9 °F 76% 29.62 in 0.8 mi NNW 20.7 mph 32.2 mph 0.00 in Snow Light Snow
10:54 AM 9.0 °F -11.0 °F 1.0 °F 70% 29.66 in 1.0 mi North 21.9 mph 27.6 mph 0.00 in Snow Light Snow
11:02 AM 9.0 °F -9.0 °F 1.0 °F 70% 29.64 in 1.0 mi North 17.3 mph 27.6 mph 0.00 in Snow Light Snow
11:16 AM 9.0 °F -11.0 °F 1.0 °F 70% 29.64 in 0.8 mi North 21.9 mph 31.1 mph 0.00 in Snow Light Snow
11:25 AM 9.0 °F -10.5 °F 1.0 °F 70% 29.65 in 1.5 mi North 20.7 mph 25.3 mph 0.00 in Snow Blowing Snow
11:33 AM 9.0 °F -10.5 °F 1.9 °F 73% 29.65 in 0.8 mi NNW 20.7 mph 26.5 mph 0.00 in Snow Light Snow
11:47 AM 9.0 °F -9.0 °F 1.9 °F 73% 29.65 in 1.5 mi NNW 17.3 mph 27.6 mph 0.00 in Snow Blowing Snow
11:50 AM 8.6 °F -11.4 °F 1.4 °F 73% 29.65 in 2.0 mi NNW 21.9 mph 25.3 mph 0.00 in Snow Blowing Snow
11:54 AM 9.0 °F -11.4 °F 1.9 °F 73% 29.68 in 1.8 mi NNW 23.0 mph - 0.00 in Snow Blowing Snow
12:04 PM 10.0 °F -7.1 °F -0.0 °F 64% 29.66 in 3.0 mi NNW 16.1 mph - N/A Snow Blowing Snow
12:14 PM 9.0 °F -9.5 °F 1.9 °F 73% 29.66 in 0.5 mi NNW 18.4 mph - 0.00 in Snow Snow
12:27 PM 10.0 °F -7.6 °F 1.0 °F 67% 29.66 in 1.5 mi NNW 17.3 mph 26.5 mph 0.00 in Snow Light Snow
12:37 PM 10.0 °F -8.6 °F 1.0 °F 67% 29.66 in 1.0 mi NNW 19.6 mph 26.5 mph 0.00 in Snow Light Snow
12:54 PM 10.0 °F -8.6 °F 1.0 °F 67% 29.69 in 2.0 mi NNW 19.6 mph 25.3 mph 0.00 in Snow Light Snow
12:59 PM 10.0 °F -7.6 °F 1.0 °F 67% 29.67 in 1.8 mi NNW 17.3 mph 25.3 mph 0.00 in Snow Light Snow
1:08 PM 10.0 °F -9.1 °F 1.0 °F 67% 29.67 in 1.5 mi NNW 20.7 mph - 0.00 in Snow Light Snow
1:17 PM 10.0 °F -7.1 °F 1.9 °F 70% 29.67 in 0.5 mi NNW 16.1 mph - 0.00 in Snow Snow
1:54 PM 12.0 °F -6.0 °F 3.0 °F 67% 29.70 in 1.0 mi NNW 19.6 mph - 0.00 in Snow Blowing Snow
2:10 PM 12.0 °F -4.5 °F 3.0 °F 67% 29.68 in 0.5 mi NNW 16.1 mph 25.3 mph 0.00 in Snow Blowing Snow
2:20 PM 12.0 °F -6.0 °F 1.9 °F 64% 29.68 in 1.5 mi NNW 19.6 mph - 0.00 in Snow Blowing Snow
2:29 PM 12.0 °F -5.6 °F 1.9 °F 64% 29.68 in 3.0 mi North 18.4 mph 27.6 mph N/A Snow Blowing Snow
2:54 PM 12.9 °F -3.9 °F -2.9 °F 49% 29.71 in 10.0 mi NNW 17.3 mph 27.6 mph N/A   Mostly Cloudy
3:54 PM 15.1 °F -0.1 °F -4.0 °F 43% 29.73 in 10.0 mi North 15.0 mph - 0.00 in   Mostly Cloudy
4:54 PM 16.0 °F -0.4 °F -2.0 °F 45% 29.76 in 10.0 mi NW 18.4 mph 27.6 mph N/A   Overcast
5:54 PM 16.0 °F 0.6 °F -2.9 °F 43% 29.80 in 10.0 mi WNW 16.1 mph 27.6 mph N/A   Scattered Clouds
6:54 PM 14.0 °F 2.9 °F -5.1 °F 43% 29.85 in 10.0 mi WNW 8.1 mph - N/A   Scattered Clouds
7:54 PM 12.9 °F -0.9 °F -6.0 °F 43% 29.89 in 10.0 mi WNW 11.5 mph - N/A   Clear
8:54 PM 12.0 °F 2.7 °F -7.1 °F 42% 29.93 in 10.0 mi WNW 5.8 mph - N/A   Clear
9:54 PM 6.1 °F - -6.0 °F 58% 29.97 in 10.0 mi Calm Calm - N/A   Clear
10:54 PM 1.9 °F -7.6 °F -6.0 °F 69% 29.98 in 10.0 mi ESE 4.6 mph - N/A   Clear
11:54 PM -0.0 °F - -7.1 °F 72% 29.99 in 10.0 mi Calm Calm - N/A   Clear